This is the latest recevied weather packets stored in our database for station/object YD1OCG-15. If no packets are shown the sender has not sent any weather packets the latest 10 day(s).
| Time | Temp. | Humidity | Pressure | Rain* | Wind** | Luminosity | Snow |
|---|---|---|---|---|---|---|---|
| 1787948544 | 25° C | 74% | 1014 hPa | - | - | - | - |
| 1787946743 | 25.56° C | 74% | 1015 hPa | - | - | - | - |
| 1787944404 | 25° C | 72% | 1014 hPa | - | - | - | - |
| 1787942603 | 26.11° C | 76% | 1015 hPa | - | - | - | - |
| 1787940804 | 26.67° C | 75% | 1015 hPa | - | - | - | - |
| 1787939004 | 26.67° C | 76% | 1015 hPa | - | - | - | - |
| 1787937204 | 26.11° C | 72% | 1015 hPa | - | - | - | - |
| 1787935404 | 26.67° C | 75% | 1016 hPa | - | - | - | - |
| 1787933603 | 26.11° C | 71% | 1015 hPa | - | - | - | - |
| 1787931803 | 26.67° C | 74% | 1016 hPa | - | - | - | - |
| 1787930004 | 25.56° C | 71% | 1016 hPa | - | - | - | - |
| 1787926403 | 26.11° C | 73% | 1015 hPa | - | - | - | - |
| 1787922823 | -17.78° C | - | - | - | - | - | - |
| 1787920764 | 27.78° C | 64% | 1015 hPa | - | - | - | - |
| 1787918965 | 27.78° C | 63% | 1013 hPa | - | - | - | - |
| 1787917164 | 28.33° C | 65% | 1014 hPa | - | - | - | - |
| 1787915364 | 28.89° C | 62% | 1012 hPa | - | - | - | - |
| 1787913564 | 29.44° C | 65% | 1013 hPa | - | - | - | - |
| 1787911764 | 27.78° C | 10% | - | - | - | - | - |
| 1787909963 | 27.78° C | 10% | - | - | - | - | - |
| 1787907624 | 29.44° C | 61% | 1011 hPa | - | - | - | - |
| 1787905825 | 30.56° C | 59% | 1011 hPa | - | - | - | - |
| 1787904024 | 31.11° C | 59% | 1011 hPa | - | - | - | - |
| 1787900963 | 30.56° C | 59% | 1011 hPa | - | - | - | - |
| 1787899163 | 30.56° C | 59% | 1011 hPa | - | - | - | - |
* Rain since midnight (hover to see other rain measurements)
** Current wind speed in m/s (hover to see current wind gust speed)